| time (UTC) | temp C | wind direction | speed KPH | gust KPH | rain 1hr cm | rain 24hr cm | rain mn cm | humidity % | barometer mb |
| 20260505153036 | 26 | 286 | 1.6 | 12.9 | 0.00 | 0.00 | 0.00 | 44 | 1010.1 |
| 20260505152517 | 26 | 221 | 1.6 | 12.9 | 0.00 | 0.00 | 0.00 | 43 | 1010.2 |
| 20260505152021 | 26 | 0 | 1.6 | 11.3 | 0.00 | 0.00 | 0.00 | 45 | 1010.2 |
| 20260505151534 | 25 | 0 | 1.6 | 11.3 | 0.00 | 0.00 | 0.00 | 41 | 1010.2 |
| 20260505151018 | 25 | 0 | 0.0 | 17.7 | 0.00 | 0.00 | 0.00 | 44 | 1010.2 |
| 20260505150519 | 25 | 0 | 3.2 | 17.7 | 0.00 | 0.00 | 0.00 | 44 | 1010.2 |
| 20260505140519 | 22 | 241 | 0.0 | 11.3 | 0.00 | 0.00 | 0.00 | 50 | 1011.0 |
| 20260505125017 | 19 | 0 | 1.6 | 12.9 | 0.00 | 0.00 | 0.00 | 58 | 1010.9 |
| 20260505124536 | 19 | 246 | 1.6 | 8.0 | 0.00 | 0.00 | 0.00 | 60 | 1010.9 |
| 20260505124017 | 19 | 251 | 0.0 | 9.7 | 0.00 | 0.00 | 0.00 | 61 | 1010.9 |
| 20260505123517 | 18 | 0 | 1.6 | 9.7 | 0.00 | 0.00 | 0.00 | 61 | 1011.0 |
| 20260505123035 | 19 | 0 | 0.0 | 4.8 | 0.00 | 0.00 | 0.00 | 60 | 1011.0 |
| 20260505122517 | 18 | 0 | 0.0 | 6.4 | 0.00 | 0.00 | 0.00 | 63 | 1010.9 |
| 20260505122019 | 18 | 0 | 0.0 | 6.4 | 0.00 | 0.00 | 0.00 | 63 | 1010.9 |
| 20260505121537 | 18 | 0 | 0.0 | 9.7 | 0.00 | 0.00 | 0.00 | 62 | 1011.0 |
| 20260505121016 | 18 | 0 | 0.0 | 9.7 | 0.00 | 0.00 | 0.00 | 63 | 1010.8 |
| 20260505120523 | 17 | 0 | 0.0 | 6.4 | 0.00 | 0.00 | 0.00 | 65 | 1010.9 |
| 20260505120033 | 17 | 214 | 0.0 | 4.8 | 0.00 | 0.00 | 0.00 | 64 | 1010.8 |
| 20260505115516 | 17 | 0 | 0.0 | 0.0 | 0.00 | 0.00 | 0.00 | 66 | 1010.8 |
| 20260505115019 | 17 | 0 | 0.0 | 0.0 | 0.00 | 0.00 | 0.00 | 66 | 1010.8 |
| 20260505114535 | 17 | 0 | 0.0 | 0.0 | 0.00 | 0.00 | 0.00 | 68 | 1010.9 |
| 20260505114018 | 16 | 0 | 0.0 | 0.0 | 0.00 | 0.00 | 0.00 | 69 | 1010.9 |
| 20260505113517 | 16 | 0 | 0.0 | 0.0 | 0.00 | 0.00 | 0.00 | 71 | 1010.7 |
| 20260505113036 | 16 | 0 | 0.0 | 0.0 | 0.00 | 0.00 | 0.00 | 72 | 1010.8 |
| 20260505112517 | 15 | 0 | 0.0 | 0.0 | 0.00 | 0.00 | 0.00 | 74 | 1010.8 |
| 20260505112019 | 15 | 0 | 0.0 | 0.0 | 0.00 | 0.00 | 0.00 | 77 | 1010.7 |
| 20260505111530 | 13 | 0 | 0.0 | 0.0 | 0.00 | 0.00 | 0.00 | 80 | 1010.7 |
| 20260505111021 | 12 | 0 | 0.0 | 0.0 | 0.00 | 0.00 | 0.00 | 85 | 1010.8 |
| 20260505110520 | 12 | 0 | 0.0 | 0.0 | 0.00 | 0.00 | 0.00 | 85 | 1010.9 |
| 20260505102017 | 12 | 0 | 0.0 | 0.0 | 0.00 | 0.00 | 0.00 | 83 | 1010.7 |
| 20260505101535 | 12 | 0 | 0.0 | 0.0 | 0.00 | 0.00 | 0.00 | 83 | 1010.7 |
| 20260505101018 | 12 | 0 | 0.0 | 0.0 | 0.00 | 0.00 | 0.00 | 83 | 1010.8 |
| 20260505100517 | 11 | 0 | 0.0 | 0.0 | 0.00 | 0.00 | 0.00 | 84 | 1010.8 |
| 20260505100034 | 11 | 0 | 0.0 | 0.0 | 0.00 | 0.00 | 0.00 | 84 | 1010.8 |
| 20260505095517 | 11 | 0 | 0.0 | 0.0 | 0.00 | 0.00 | 0.00 | 85 | 1010.9 |
| 20260505095017 | 11 | 0 | 0.0 | 0.0 | 0.00 | 0.00 | 0.00 | 85 | 1010.8 |
| 20260505094535 | 11 | 0 | 0.0 | 0.0 | 0.00 | 0.00 | 0.00 | 85 | 1010.8 |
| 20260505094037 | 11 | 0 | 0.0 | 0.0 | 0.00 | 0.00 | 0.00 | 86 | 1010.8 |
| 20260505093518 | 11 | 0 | 0.0 | 0.0 | 0.00 | 0.00 | 0.00 | 86 | 1010.7 |
| 20260505093039 | 11 | 0 | 0.0 | 0.0 | 0.00 | 0.00 | 0.00 | 86 | 1010.7 |
| 20260505092519 | 11 | 0 | 0.0 | 0.0 | 0.00 | 0.00 | 0.00 | 86 | 1010.6 |
| 20260505092017 | 11 | 0 | 0.0 | 0.0 | 0.00 | 0.00 | 0.00 | 86 | 1009.9 |
| 20260505091536 | 11 | 0 | 0.0 | 0.0 | 0.00 | 0.00 | 0.00 | 85 | 1009.8 |
| 20260505091019 | 11 | 0 | 0.0 | 0.0 | 0.00 | 0.00 | 0.00 | 85 | 1009.7 |
| 20260505090517 | 11 | 0 | 0.0 | 0.0 | 0.00 | 0.00 | 0.00 | 84 | 1009.7 |
| 20260505090042 | 11 | 0 | 0.0 | 0.0 | 0.00 | 0.00 | 0.00 | 84 | 1009.9 |
| 20260505085517 | 11 | 0 | 0.0 | 0.0 | 0.00 | 0.00 | 0.00 | 84 | 1009.9 |
| 20260505085019 | 11 | 0 | 0.0 | 0.0 | 0.00 | 0.00 | 0.00 | 84 | 1009.8 |
| 20260505084546 | 11 | 0 | 0.0 | 0.0 | 0.00 | 0.00 | 0.00 | 84 | 1009.8 |
| 20260505084018 | 11 | 0 | 0.0 | 0.0 | 0.00 | 0.00 | 0.00 | 83 | 1009.8 |
| 20260505083523 | 11 | 0 | 0.0 | 0.0 | 0.00 | 0.00 | 0.00 | 83 | 1009.7 |
| 20260505083041 | 11 | 0 | 0.0 | 0.0 | 0.00 | 0.00 | 0.00 | 83 | 1009.8 |
| 20260505082517 | 11 | 0 | 0.0 | 0.0 | 0.00 | 0.00 | 0.00 | 82 | 1009.8 |
| 20260505082019 | 11 | 0 | 0.0 | 0.0 | 0.00 | 0.00 | 0.00 | 82 | 1009.9 |
| 20260505081535 | 11 | 0 | 0.0 | 0.0 | 0.00 | 0.00 | 0.00 | 81 | 1009.8 |
| 20260505081022 | 11 | 0 | 0.0 | 0.0 | 0.00 | 0.00 | 0.00 | 80 | 1009.8 |
| 20260505080521 | 11 | 0 | 0.0 | 0.0 | 0.00 | 0.00 | 0.00 | 80 | 1009.8 |
| 20260505080043 | 11 | 0 | 0.0 | 0.0 | 0.00 | 0.00 | 0.00 | 78 | 1009.8 |
| 20260505075516 | 11 | 0 | 0.0 | 0.0 | 0.00 | 0.00 | 0.00 | 77 | 1010.0 |
| 20260505075017 | 11 | 0 | 0.0 | 0.0 | 0.00 | 0.00 | 0.00 | 77 | 1009.9 |
| 20260505074535 | 11 | 0 | 0.0 | 0.0 | 0.00 | 0.00 | 0.00 | 76 | 1009.8 |
| 20260505074017 | 11 | 0 | 0.0 | 0.0 | 0.00 | 0.00 | 0.00 | 76 | 1009.8 |
| 20260505073521 | 11 | 0 | 0.0 | 0.0 | 0.00 | 0.00 | 0.00 | 76 | 1009.9 |
| 20260505073036 | 12 | 0 | 0.0 | 0.0 | 0.00 | 0.00 | 0.00 | 75 | 1009.8 |
| 20260505072518 | 12 | 0 | 0.0 | 0.0 | 0.00 | 0.00 | 0.00 | 75 | 1010.0 |
| 20260505072019 | 12 | 0 | 0.0 | 0.0 | 0.00 | 0.00 | 0.00 | 75 | 1009.7 |
| 20260505071547 | 12 | 0 | 0.0 | 0.0 | 0.00 | 0.00 | 0.00 | 74 | 1009.8 |
| 20260505071019 | 12 | 0 | 0.0 | 0.0 | 0.00 | 0.00 | 0.00 | 74 | 1009.7 |
| 20260505070519 | 12 | 0 | 0.0 | 0.0 | 0.00 | 0.00 | 0.00 | 74 | 1009.7 |
| 20260505070036 | 12 | 0 | 0.0 | 0.0 | 0.00 | 0.00 | 0.00 | 73 | 1009.6 |
| 20260505065521 | 12 | 0 | 0.0 | 0.0 | 0.00 | 0.00 | 0.00 | 72 | 1009.6 |
| 20260505065018 | 13 | 0 | 0.0 | 0.0 | 0.00 | 0.00 | 0.00 | 72 | 1009.7 |
| 20260505064537 | 13 | 0 | 0.0 | 0.0 | 0.00 | 0.00 | 0.00 | 71 | 1009.6 |
| 20260505064017 | 13 | 0 | 0.0 | 3.2 | 0.00 | 0.00 | 0.00 | 71 | 1009.8 |
| 20260505063516 | 13 | 0 | 0.0 | 3.2 | 0.00 | 0.00 | 0.00 | 71 | 1009.9 |
| 20260505063038 | 13 | 0 | 0.0 | 0.0 | 0.00 | 0.00 | 0.00 | 71 | 1009.7 |
| 20260505062520 | 13 | 0 | 0.0 | 0.0 | 0.00 | 0.00 | 0.00 | 70 | 1009.7 |
| 20260505062020 | 13 | 0 | 0.0 | 0.0 | 0.00 | 0.00 | 0.00 | 70 | 1009.7 |
| 20260505061542 | 13 | 0 | 0.0 | 0.0 | 0.00 | 0.00 | 0.00 | 69 | 1009.7 |
| 20260505061019 | 13 | 0 | 0.0 | 0.0 | 0.00 | 0.00 | 0.00 | 69 | 1009.8 |
| 20260505060518 | 13 | 0 | 0.0 | 0.0 | 0.00 | 0.00 | 0.00 | 69 | 1009.7 |
| 20260505060039 | 14 | 0 | 0.0 | 0.0 | 0.00 | 0.00 | 0.00 | 68 | 1009.7 |
| 20260505055518 | 14 | 0 | 0.0 | 1.6 | 0.00 | 0.00 | 0.00 | 68 | 1009.8 |
| 20260505055019 | 14 | 0 | 0.0 | 4.8 | 0.00 | 0.00 | 0.00 | 68 | 1009.7 |
| 20260505054541 | 14 | 0 | 0.0 | 4.8 | 0.00 | 0.00 | 0.00 | 68 | 1009.7 |
| 20260505054019 | 14 | 0 | 0.0 | 0.0 | 0.00 | 0.00 | 0.00 | 68 | 1009.7 |
| 20260505053518 | 14 | 0 | 0.0 | 4.8 | 0.00 | 0.00 | 0.00 | 67 | 1009.8 |
| 20260505053036 | 14 | 0 | 0.0 | 4.8 | 0.00 | 0.00 | 0.00 | 67 | 1009.8 |
| 20260505052517 | 14 | 0 | 0.0 | 1.6 | 0.00 | 0.00 | 0.00 | 67 | 1009.8 |
| 20260505052018 | 14 | 0 | 0.0 | 3.2 | 0.00 | 0.00 | 0.00 | 67 | 1009.8 |
| 20260505051531 | 14 | 0 | 0.0 | 3.2 | 0.00 | 0.00 | 0.00 | 66 | 1009.8 |
| 20260505051018 | 14 | 0 | 0.0 | 3.2 | 0.00 | 0.00 | 0.00 | 66 | 1009.9 |
| 20260505050515 | 15 | 0 | 0.0 | 3.2 | 0.00 | 0.00 | 0.00 | 65 | 1010.0 |
| 20260505041533 | 15 | 0 | 0.0 | 4.8 | 0.00 | 0.00 | 0.00 | 60 | 1010.1 |
| 20260505041018 | 15 | 0 | 0.0 | 4.8 | 0.00 | 0.00 | 0.00 | 59 | 1010.0 |
| 20260505040518 | 15 | 0 | 0.0 | 0.0 | 0.00 | 0.00 | 0.00 | 58 | 1010.0 |
| 20260505040037 | 15 | 0 | 0.0 | 0.0 | 0.00 | 0.00 | 0.00 | 58 | 1010.0 |
| 20260505035517 | 15 | 0 | 0.0 | 0.0 | 0.00 | 0.00 | 0.00 | 57 | 1010.0 |
| 20260505035018 | 16 | 0 | 0.0 | 1.6 | 0.00 | 0.00 | 0.00 | 56 | 1009.8 |
| 20260505034535 | 16 | 0 | 0.0 | 3.2 | 0.00 | 0.00 | 0.00 | 55 | 1009.9 |
| 20260505034019 | 16 | 0 | 0.0 | 3.2 | 0.00 | 0.00 | 0.00 | 54 | 1009.9 |
| 20260505033519 | 16 | 0 | 0.0 | 3.2 | 0.00 | 0.00 | 0.00 | 54 | 1010.0 |
| 20260505033039 | 16 | 0 | 0.0 | 1.6 | 0.00 | 0.00 | 0.00 | 53 | 1009.9 |
| 20260505032519 | 16 | 0 | 0.0 | 4.8 | 0.00 | 0.00 | 0.00 | 53 | 1010.1 |
| 20260505032019 | 16 | 0 | 0.0 | 4.8 | 0.00 | 0.00 | 0.00 | 52 | 1010.0 |
| 20260505031550 | 16 | 0 | 0.0 | 4.8 | 0.00 | 0.00 | 0.00 | 52 | 1010.0 |
| 20260505031019 | 16 | 192 | 0.0 | 4.8 | 0.00 | 0.00 | 0.00 | 51 | 1010.0 |
| 20260505030519 | 16 | 188 | 0.0 | 4.8 | 0.00 | 0.00 | 0.00 | 50 | 1010.1 |
| 20260505030035 | 16 | 188 | 0.0 | 4.8 | 0.00 | 0.00 | 0.00 | 51 | 1009.9 |
| 20260505025517 | 16 | 0 | 0.0 | 4.8 | 0.00 | 0.00 | 0.00 | 50 | 1010.1 |
| 20260505025018 | 16 | 0 | 0.0 | 6.4 | 0.00 | 0.00 | 0.00 | 50 | 1010.1 |
| 20260505024546 | 16 | 0 | 0.0 | 6.4 | 0.00 | 0.00 | 0.00 | 49 | 1010.0 |
| 20260505024018 | 16 | 193 | 0.0 | 6.4 | 0.00 | 0.00 | 0.00 | 48 | 1010.2 |
| 20260505023518 | 17 | 0 | 0.0 | 6.4 | 0.00 | 0.00 | 0.00 | 48 | 1010.2 |
| 20260505023041 | 16 | 0 | 0.0 | 4.8 | 0.00 | 0.00 | 0.00 | 48 | 1010.1 |
| 20260505022519 | 16 | 196 | 0.0 | 3.2 | 0.00 | 0.00 | 0.00 | 48 | 1010.1 |
| 20260505022019 | 16 | 0 | 0.0 | 3.2 | 0.00 | 0.00 | 0.00 | 47 | 1010.2 |
| 20260505021536 | 17 | 0 | 0.0 | 8.0 | 0.00 | 0.00 | 0.00 | 47 | 1010.2 |
| 20260505021019 | 17 | 194 | 0.0 | 8.0 | 0.00 | 0.00 | 0.00 | 47 | 1010.2 |
| 20260505020518 | 17 | 207 | 0.0 | 4.8 | 0.00 | 0.00 | 0.00 | 47 | 1010.4 |
| 20260505020034 | 16 | 0 | 0.0 | 4.8 | 0.00 | 0.00 | 0.00 | 47 | 1010.3 |
| 20260505015516 | 16 | 196 | 0.0 | 4.8 | 0.00 | 0.00 | 0.00 | 47 | 1010.2 |
| 20260505015017 | 16 | 0 | 0.0 | 3.2 | 0.00 | 0.00 | 0.00 | 48 | 1010.1 |
| 20260505014555 | 16 | 190 | 0.0 | 1.6 | 0.00 | 0.00 | 0.00 | 48 | 1010.1 |
| 20260505014018 | 16 | 0 | 0.0 | 0.0 | 0.00 | 0.00 | 0.00 | 49 | 1010.1 |
| 20260505013518 | 16 | 0 | 0.0 | 0.0 | 0.00 | 0.00 | 0.00 | 48 | 1010.2 |
| 20260505013032 | 16 | 0 | 0.0 | 0.0 | 0.00 | 0.00 | 0.00 | 49 | 1010.1 |
| 20260505012516 | 16 | 0 | 0.0 | 0.0 | 0.00 | 0.00 | 0.00 | 48 | 1010.1 |
| 20260505012017 | 16 | 0 | 0.0 | 0.0 | 0.00 | 0.00 | 0.00 | 48 | 1010.0 |
| 20260505011546 | 16 | 0 | 0.0 | 0.0 | 0.00 | 0.00 | 0.00 | 48 | 1009.9 |
| 20260505011015 | 16 | 0 | 0.0 | 0.0 | 0.00 | 0.00 | 0.00 | 47 | 1009.9 |
| 20260505010517 | 16 | 0 | 0.0 | 0.0 | 0.00 | 0.00 | 0.00 | 47 | 1009.8 |
| 20260505010036 | 16 | 0 | 0.0 | 0.0 | 0.00 | 0.00 | 0.00 | 47 | 1009.7 |
| 20260505005519 | 16 | 0 | 0.0 | 0.0 | 0.00 | 0.00 | 0.00 | 47 | 1009.6 |
| 20260505005019 | 17 | 0 | 0.0 | 0.0 | 0.00 | 0.00 | 0.00 | 47 | 1009.7 |
| 20260505004535 | 17 | 0 | 0.0 | 0.0 | 0.00 | 0.00 | 0.00 | 46 | 1009.6 |
| 20260505004019 | 17 | 0 | 0.0 | 0.0 | 0.00 | 0.00 | 0.00 | 46 | 1009.6 |
| 20260505003520 | 17 | 0 | 0.0 | 0.0 | 0.00 | 0.00 | 0.00 | 45 | 1009.5 |
| 20260505003035 | 17 | 0 | 0.0 | 0.0 | 0.00 | 0.00 | 0.00 | 45 | 1009.5 |
| 20260505002517 | 17 | 0 | 0.0 | 0.0 | 0.00 | 0.00 | 0.00 | 44 | 1009.3 |
| 20260505002017 | 18 | 0 | 0.0 | 0.0 | 0.00 | 0.00 | 0.00 | 44 | 1009.4 |
| 20260505001543 | 18 | 0 | 0.0 | 0.0 | 0.00 | 0.00 | 0.00 | 43 | 1009.4 |
| 20260505001016 | 18 | 0 | 0.0 | 0.0 | 0.00 | 0.00 | 0.00 | 43 | 1009.3 |
| 20260505000517 | 18 | 0 | 0.0 | 0.0 | 0.00 | 0.00 | 0.00 | 42 | 1009.2 |
| 20260505000035 | 18 | 0 | 0.0 | 0.0 | 0.00 | 0.00 | 0.00 | 42 | 1009.3 |
| 20260504235516 | 19 | 0 | 0.0 | 1.6 | 0.00 | 0.00 | 0.00 | 41 | 1009.1 |
| 20260504235016 | 19 | 0 | 0.0 | 9.7 | 0.00 | 0.00 | 0.00 | 40 | 1009.1 |
| 20260504234536 | 20 | 0 | 0.0 | 9.7 | 0.00 | 0.00 | 0.00 | 39 | 1009.0 |
| 20260504234016 | 20 | 0 | 1.6 | 11.3 | 0.00 | 0.00 | 0.00 | 38 | 1009.0 |
| 20260504233516 | 20 | 0 | 0.0 | 11.3 | 0.00 | 0.00 | 0.00 | 38 | 1008.9 |
| 20260504233035 | 20 | 196 | 1.6 | 11.3 | 0.00 | 0.00 | 0.00 | 37 | 1008.8 |
| 20260504232516 | 20 | 192 | 0.0 | 12.9 | 0.00 | 0.00 | 0.00 | 38 | 1008.9 |
| 20260504232017 | 20 | 0 | 0.0 | 12.9 | 0.00 | 0.00 | 0.00 | 37 | 1008.8 |
| 20260504231535 | 21 | 0 | 1.6 | 12.9 | 0.00 | 0.00 | 0.00 | 37 | 1008.8 |
| 20260504231016 | 21 | 168 | 0.0 | 11.3 | 0.00 | 0.00 | 0.00 | 36 | 1008.8 |
| 20260504230518 | 21 | 211 | 1.6 | 12.9 | 0.00 | 0.00 | 0.00 | 36 | 1008.7 |
| 20260504230043 | 21 | 0 | 1.6 | 12.9 | 0.00 | 0.00 | 0.00 | 35 | 1008.7 |
| 20260504225515 | 21 | 187 | 1.6 | 12.9 | 0.00 | 0.00 | 0.00 | 35 | 1008.6 |
| 20260504225017 | 21 | 0 | 1.6 | 12.9 | 0.00 | 0.00 | 0.00 | 35 | 1008.6 |
| 20260504224538 | 21 | 217 | 0.0 | 8.0 | 0.00 | 0.00 | 0.00 | 35 | 1008.6 |
| 20260504224016 | 21 | 196 | 1.6 | 12.9 | 0.00 | 0.00 | 0.00 | 34 | 1008.5 |
| 20260504223518 | 21 | 211 | 1.6 | 12.9 | 0.00 | 0.00 | 0.00 | 35 | 1008.7 |
| 20260504223035 | 22 | 182 | 3.2 | 16.1 | 0.00 | 0.00 | 0.00 | 33 | 1008.6 |
| 20260504222517 | 22 | 0 | 0.0 | 17.7 | 0.00 | 0.00 | 0.00 | 35 | 1008.7 |
| 20260504222016 | 22 | 302 | 4.8 | 17.7 | 0.00 | 0.00 | 0.00 | 33 | 1008.7 |
| 20260504221535 | 22 | 193 | 3.2 | 16.1 | 0.00 | 0.00 | 0.00 | 33 | 1008.6 |
| 20260504221019 | 22 | 317 | 0.0 | 12.9 | 0.00 | 0.00 | 0.00 | 33 | 1008.7 |
| 20260504220519 | 22 | 272 | 1.6 | 12.9 | 0.00 | 0.00 | 0.00 | 33 | 1008.7 |
| 20260504220034 | 22 | 0 | 1.6 | 9.7 | 0.00 | 0.00 | 0.00 | 32 | 1008.7 |
| 20260504215518 | 22 | 219 | 3.2 | 9.7 | 0.00 | 0.00 | 0.00 | 33 | 1008.8 |
| 20260504215017 | 22 | 0 | 0.0 | 12.9 | 0.00 | 0.00 | 0.00 | 33 | 1008.9 |
| 20260504214532 | 22 | 236 | 0.0 | 12.9 | 0.00 | 0.00 | 0.00 | 33 | 1008.9 |
| 20260504214017 | 22 | 274 | 1.6 | 12.9 | 0.00 | 0.00 | 0.00 | 33 | 1008.9 |
| 20260504213517 | 22 | 178 | 3.2 | 17.7 | 0.00 | 0.00 | 0.00 | 32 | 1008.9 |
| 20260504213036 | 22 | 200 | 3.2 | 17.7 | 0.00 | 0.00 | 0.00 | 32 | 1008.9 |
| 20260504212516 | 22 | 223 | 1.6 | 16.1 | 0.00 | 0.00 | 0.00 | 33 | 1009.0 |
| 20260504212022 | 23 | 306 | 3.2 | 16.1 | 0.00 | 0.00 | 0.00 | 32 | 1009.0 |
| 20260504211535 | 23 | 0 | 0.0 | 14.5 | 0.00 | 0.00 | 0.00 | 32 | 1009.1 |
| 20260504211015 | 22 | 215 | 3.2 | 14.5 | 0.00 | 0.00 | 0.00 | 33 | 1009.1 |
| 20260504210518 | 22 | 184 | 3.2 | 14.5 | 0.00 | 0.00 | 0.00 | 34 | 1009.2 |
| 20260504210053 | 22 | 267 | 0.0 | 12.9 | 0.00 | 0.00 | 0.00 | 35 | 1009.1 |
| 20260504205517 | 22 | 227 | 1.6 | 12.9 | 0.00 | 0.00 | 0.00 | 32 | 1009.2 |
| 20260504205020 | 22 | 268 | 1.6 | 12.9 | 0.00 | 0.00 | 0.00 | 33 | 1009.2 |
| 20260504204551 | 22 | 0 | 3.2 | 12.9 | 0.00 | 0.00 | 0.00 | 33 | 1009.1 |
| 20260504204016 | 22 | 258 | 1.6 | 16.1 | 0.00 | 0.00 | 0.00 | 33 | 1009.2 |
| 20260504203518 | 22 | 187 | 3.2 | 16.1 | 0.00 | 0.00 | 0.00 | 32 | 1009.2 |
| 20260504203036 | 22 | 0 | 1.6 | 19.3 | 0.00 | 0.00 | 0.00 | 32 | 1009.0 |
| 20260504202517 | 22 | 0 | 3.2 | 19.3 | 0.00 | 0.00 | 0.00 | 32 | 1009.2 |
| 20260504202016 | 22 | 0 | 1.6 | 17.7 | 0.00 | 0.00 | 0.00 | 31 | 1009.1 |
| 20260504201535 | 23 | 170 | 4.8 | 12.9 | 0.00 | 0.00 | 0.00 | 30 | 1009.1 |
| 20260504201018 | 22 | 0 | 1.6 | 12.9 | 0.00 | 0.00 | 0.00 | 32 | 1009.2 |
| 20260504200518 | 22 | 0 | 1.6 | 12.9 | 0.00 | 0.00 | 0.00 | 33 | 1009.1 |
| 20260504200035 | 23 | 254 | 1.6 | 19.3 | 0.00 | 0.00 | 0.00 | 32 | 1009.2 |
| 20260504195515 | 23 | 0 | 4.8 | 19.3 | 0.00 | 0.00 | 0.00 | 32 | 1009.1 |
| 20260504195017 | 23 | 210 | 0.0 | 12.9 | 0.00 | 0.00 | 0.00 | 32 | 1009.2 |
| 20260504194534 | 22 | 0 | 0.0 | 16.1 | 0.00 | 0.00 | 0.00 | 34 | 1009.3 |
| 20260504194018 | 22 | 277 | 1.6 | 17.7 | 0.00 | 0.00 | 0.00 | 32 | 1009.4 |
| 20260504193519 | 22 | 147 | 4.8 | 27.4 | 0.00 | 0.00 | 0.00 | 31 | 1009.4 |
| 20260504193035 | 22 | 229 | 8.0 | 27.4 | 0.00 | 0.00 | 0.00 | 33 | 1009.5 |
| 20260504192516 | 22 | 284 | 3.2 | 29.0 | 0.00 | 0.00 | 0.00 | 31 | 1009.4 |
| 20260504192018 | 22 | 0 | 1.6 | 29.0 | 0.00 | 0.00 | 0.00 | 34 | 1009.4 |
| 20260504191535 | 22 | 192 | 4.8 | 29.0 | 0.00 | 0.00 | 0.00 | 30 | 1009.5 |
| 20260504191019 | 22 | 184 | 1.6 | 14.5 | 0.00 | 0.00 | 0.00 | 30 | 1009.4 |
| 20260504190517 | 22 | 135 | 3.2 | 22.5 | 0.00 | 0.00 | 0.00 | 32 | 1009.5 |
| 20260504190038 | 22 | 0 | 3.2 | 22.5 | 0.00 | 0.00 | 0.00 | 33 | 1009.6 |
| 20260504185517 | 22 | 267 | 1.6 | 14.5 | 0.00 | 0.00 | 0.00 | 31 | 1009.7 |
| 20260504185015 | 22 | 281 | 0.0 | 20.9 | 0.00 | 0.00 | 0.00 | 35 | 1009.8 |
| 20260504184535 | 22 | 266 | 4.8 | 25.7 | 0.00 | 0.00 | 0.00 | 30 | 1009.9 |
| 20260504184015 | 22 | 243 | 3.2 | 25.7 | 0.00 | 0.00 | 0.00 | 31 | 1010.0 |
| 20260504183517 | 22 | 227 | 3.2 | 17.7 | 0.00 | 0.00 | 0.00 | 32 | 1010.0 |
| 20260504183036 | 22 | 269 | 4.8 | 19.3 | 0.00 | 0.00 | 0.00 | 31 | 1010.0 |
| 20260504182515 | 21 | 235 | 3.2 | 19.3 | 0.00 | 0.00 | 0.00 | 32 | 1010.1 |
| 20260504182017 | 21 | 324 | 6.4 | 20.9 | 0.00 | 0.00 | 0.00 | 31 | 1010.3 |
| 20260504181534 | 21 | 288 | 4.8 | 20.9 | 0.00 | 0.00 | 0.00 | 32 | 1010.2 |
| 20260504181017 | 22 | 37 | 3.2 | 17.7 | 0.00 | 0.00 | 0.00 | 31 | 1010.2 |
| 20260504180518 | 22 | 283 | 3.2 | 17.7 | 0.00 | 0.00 | 0.00 | 32 | 1010.3 |
| 20260504180034 | 22 | 266 | 4.8 | 20.9 | 0.00 | 0.00 | 0.00 | 33 | 1010.5 |
| 20260504175518 | 21 | 318 | 3.2 | 22.5 | 0.00 | 0.00 | 0.00 | 33 | 1010.4 |
| 20260504175017 | 21 | 205 | 8.0 | 22.5 | 0.00 | 0.00 | 0.00 | 31 | 1010.4 |
| 20260504174538 | 21 | 261 | 3.2 | 22.5 | 0.00 | 0.00 | 0.00 | 32 | 1010.6 |
| 20260504174016 | 21 | 178 | 3.2 | 20.9 | 0.00 | 0.00 | 0.00 | 34 | 1010.6 |
| 20260504173518 | 21 | 236 | 4.8 | 20.9 | 0.00 | 0.00 | 0.00 | 33 | 1010.7 |
| 20260504173039 | 21 | 224 | 1.6 | 17.7 | 0.00 | 0.00 | 0.00 | 34 | 1010.8 |
| 20260504172518 | 21 | 352 | 1.6 | 17.7 | 0.00 | 0.00 | 0.00 | 34 | 1010.9 |
| 20260504172018 | 21 | 182 | 3.2 | 20.9 | 0.00 | 0.00 | 0.00 | 35 | 1011.0 |
| 20260504171537 | 21 | 44 | 6.4 | 20.9 | 0.00 | 0.00 | 0.00 | 34 | 1011.3 |
| 20260504171024 | 21 | 277 | 3.2 | 19.3 | 0.00 | 0.00 | 0.00 | 33 | 1011.2 |
| 20260504170517 | 21 | 273 | 3.2 | 19.3 | 0.00 | 0.00 | 0.00 | 35 | 1011.0 |